Powrót do katalogu

STARLINK-32132

AktywnyŁącznośćVLEO
NORAD 60334·PAYLOAD·🇺🇸 United States

Wystrzelony Aug 2, 2024 z Cape Canaveral Space Force Station

Loading…

Następne Przeloty (najbliższe 24 godziny)

TLE

ŚwieżeSource: CelesTrak SupGP

Epoka: Sep 14, 2026, 21:30 UTC

1 60334C 24136F   26257.89631944  .00048794  00000+0  14419-2 0  2577
2 60334  53.1573 275.9964 0001259  97.2092 297.9193 15.34359598    13

Śledź STARLINK-32132 w czasie rzeczywistym z AllMySat

Download on the App Store